Weather History for Pecs, Hungary

Change the Weather History Date:

Sunday, October 21, 2012

  Actual Average Record
Temperature  
Mean Temperature 58 °F -  
Max Temperature 68 °F 52 °F - ()
Min Temperature 47 °F 39 °F - ()
Degree Days  
Heating Degree Days 8    
Growing Degree Days 8 (Base 50)    
Moisture  
Dew Point 49 °F    
Average Humidity 74    
Maximum Humidity 94    
Minimum Humidity 48    
Precipitation  
Precipitation 0.00 in 0.07 in - ()
Sea Level Pressure  
Sea Level Pressure 30.13 in    
Wind  
Wind Speed 4 mph ()    
Max Wind Speed 9 mph    
Max Gust Speed -    
Visibility 5.5 miles    
Events      
T = Trace of Precipitation, MM = Missing Value Source: Averaged Metar Reports

Daily Weather History Graph

Daily Weather History Graph

Search for Another Location

Airport:

Trip Planner

Search our weather history database for the weather conditions in past years. The results will help you decide how hot, cold, wet, or windy it might be!

Date:

Astronomy

Oct. 21, 2012 Rise Set
Actual Time 7:12 AM CEST 5:50 PM CEST
Civil Twilight 6:41 AM CEST 6:20 PM CEST
Nautical Twilight 6:07 AM CEST 6:55 PM CEST
Astronomical Twilight 5:32 AM CEST 7:29 PM CEST
Moon 1:27 PM CEST (10/21) 11:17 PM CEST (10/21)
Length of Visible Light 11h 38m
Length of Day
10h 37m
Waxing Crescent, 42% of the Moon is Illuminated
Oct 21
Waxing Crescent
Oct 22
First Quarter
Oct 29
Full
Nov 7
Last Quarter
Nov 13
New

Hourly Weather History & Observations

Time (CEST) Temp. Dew Point Humidity Pressure Visibility Wind Dir Wind Speed Gust Speed Precip Events Conditions
12:45 AM 55.4 °F 53.6 °F 94% 30.12 in - NE 1.2 mph - N/A   Clear
1:45 AM 57.2 °F 53.6 °F 88% 30.12 in - NE 2.3 mph - N/A   Clear
2:00 AM 57 °F 53 °F 83% 30.12 in 6 mi NE 2.2 mph - -   Partly Cloudy
2:45 AM 55.4 °F 51.8 °F 88% 30.12 in - East 2.3 mph - N/A   Clear
3:45 AM 50.0 °F 48.2 °F 94% 30.12 in 5.0 mi ESE 4.6 mph - N/A   Unknown
4:45 AM 50.0 °F 48.2 °F 94% 30.12 in 5.0 mi East 4.6 mph - N/A   Unknown
5:45 AM 50.0 °F 48.2 °F 94% 30.12 in 5.0 mi East 3.5 mph - N/A   Unknown
6:15 AM 48.2 °F 46.4 °F 93% 30.12 in 5.0 mi East 3.5 mph - N/A   Unknown
6:45 AM 50.0 °F 48.2 °F 94% 30.12 in - East 4.6 mph - N/A   Clear
7:00 AM - - N/A% - - ESE 5.8 mph - N/A   Clear
7:15 AM 48.2 °F 46.4 °F 93% 30.12 in - East 4.6 mph - N/A   Clear
7:45 AM 48.2 °F 46.4 °F 93% 30.15 in - East 4.6 mph - N/A   Clear
8:00 AM 49 °F 46 °F 85% 30.15 in 6 mi East 4.5 mph - -   Partly Cloudy
8:15 AM 50.0 °F 48.2 °F 94% 30.15 in 3.7 mi East 5.8 mph - N/A   Unknown
8:45 AM 53.6 °F 50.0 °F 88% 30.15 in 3.7 mi East 3.5 mph - N/A   Unknown
9:15 AM 55.4 °F 50.0 °F 82% 30.15 in 3.7 mi East 3.5 mph - N/A   Unknown
9:45 AM 57.2 °F 50.0 °F 77% 30.15 in 5.0 mi ESE 5.8 mph - N/A   Unknown
10:00 AM - - N/A% - - ESE 5.8 mph - N/A   Clear
10:15 AM 57.2 °F 50.0 °F 77% 30.15 in 5.0 mi SE 6.9 mph - N/A   Unknown
10:45 AM 59.0 °F 50.0 °F 72% 30.15 in - SE 9.2 mph - N/A   Clear
11:45 AM 62.6 °F 50.0 °F 63% 30.15 in - ESE 5.8 mph - N/A   Clear
12:45 PM 64.4 °F 50.0 °F 59% 30.15 in - ESE 8.1 mph - N/A   Clear
1:00 PM - - N/A% - - ESE 5.8 mph - N/A   Clear
1:15 PM 64.4 °F 50.0 °F 59% 30.12 in - SE 6.9 mph - N/A   Clear
1:45 PM 66.2 °F 51.8 °F 60% 30.12 in - ESE 6.9 mph - N/A   Clear
2:00 PM 66 °F 51 °F 48% 30.12 in 9 mi ESE 6.7 mph - -   Partly Cloudy
2:15 PM 66.2 °F 51.8 °F 60% 30.12 in - East 6.9 mph - N/A   Clear
2:45 PM 66.2 °F 51.8 °F 60% 30.12 in - East 8.1 mph - N/A   Clear
3:15 PM 68.0 °F 51.8 °F 56% 30.12 in - East 8.1 mph - N/A   Clear
3:45 PM 68.0 °F 51.8 °F 56% 30.12 in - East 6.9 mph - N/A   Clear
4:00 PM - - N/A% - - East 5.8 mph - N/A   Clear
4:15 PM 68.0 °F 50.0 °F 52% 30.12 in - East 6.9 mph - N/A   Clear
4:45 PM 68.0 °F 51.8 °F 56% 30.12 in - East 3.5 mph - N/A   Clear
5:15 PM 66.2 °F 51.8 °F 60% 30.12 in - East 4.6 mph - N/A   Clear
5:45 PM 62.6 °F 50.0 °F 63% 30.12 in - East 4.6 mph - N/A   Clear
6:15 PM 60.8 °F 48.2 °F 63% 30.12 in - East 4.6 mph - N/A   Clear
6:45 PM 60.8 °F 48.2 °F 63% 30.12 in - East 4.6 mph - N/A   Clear
7:15 PM 57.2 °F 46.4 °F 67% 30.12 in - East 5.8 mph - N/A   Clear
7:45 PM 57.2 °F 46.4 °F 67% 30.15 in - East 6.9 mph - N/A   Clear
8:00 PM 57 °F 47 °F 60% 30.14 in 9 mi East 6.7 mph - -   Partly Cloudy
8:15 PM 55.4 °F 46.4 °F 72% 30.15 in - East 8.1 mph - N/A   Clear
8:45 PM 55.4 °F 46.4 °F 72% 30.15 in - East 6.9 mph - N/A   Clear
9:15 PM 53.6 °F 46.4 °F 77% 30.15 in - East 6.9 mph - N/A   Clear
9:45 PM 53.6 °F 46.4 °F 77% 30.15 in - East 8.1 mph - N/A   Clear
10:45 PM 53.6 °F 46.4 °F 77% 30.18 in - East 6.9 mph - N/A   Clear
11:45 PM 51.8 °F 44.6 °F 76% 30.15 in - East 6.9 mph - N/A   Clear